Maple Lake, MN

11:48 PM CDT on April 23, 2017 (GMT -0500)
Maple Lake Municipal

Weather History for KMGG - April, 2014

Change the Weather History Date:

Friday, April 11, 2014

  Actual Average (KSTC) Record (KSTC)
Temperature  
Mean Temperature 50 °F -  
Max Temperature 62 °F 52 °F 82 °F (1968)
Min Temperature 37 °F 29 °F 10 °F (1940)
Degree Days  
Heating Degree Days 16    
Moisture  
Dew Point 34 °F    
Average Humidity 58    
Maximum Humidity 82    
Minimum Humidity 29    
Precipitation  
Precipitation 0.00 in - - ()
Sea Level Pressure  
Sea Level Pressure 29.94 in    
Wind  
Wind Speed 2 mph (NNW)    
Max Wind Speed 10 mph    
Max Gust Speed 23 mph    
Visibility 10 miles    
Events      
Averages and records for this station are not official NWS values.
T = Trace of Precipitation, MM = Missing Value Source: NWS Daily Summary

Daily Weather History Graph

Daily Weather History Graph

Search for Another Location

Airport or City:

Trip Planner

Search our weather history database for the weather conditions in past years. The results will help you decide how hot, cold, wet, or windy it might be!

Date:

Astronomy

Apr. 11, 2014 Rise Set
Actual Time 6:37 AM CDT 7:56 PM CDT
Civil Twilight 6:07 AM CDT 8:27 PM CDT
Nautical Twilight 5:30 AM CDT 9:04 PM CDT
Astronomical Twilight 4:51 AM CDT 9:43 PM CDT
Moon 4:29 PM CDT (4/11) 4:43 AM CDT (4/11)
Length of Visible Light 14h 19m
Length of Day
13h 18m
Waxing Gibbous, 87% of the Moon is Illuminated
Apr 11
Waxing Gibbous
Apr 15
Full
Apr 22
Last Quarter
Apr 29
New
May 6
First Quarter

Hourly Weather History & Observations

Time (CDT) Temp. Windchill Dew Point Humidity Pressure Visibility Wind Dir Wind Speed Gust Speed Precip Events Conditions
12:17 AM 38.5 °F - 31.5 °F 76% 29.93 in 10.0 mi Calm Calm - N/A   Overcast
12:37 AM 37.9 °F - 31.6 °F 78% 29.93 in 10.0 mi Calm Calm - N/A   Mostly Cloudy
12:57 AM 37.8 °F - 31.3 °F 77% 29.93 in 10.0 mi Calm Calm - N/A   Mostly Cloudy
1:17 AM 41.5 °F - 31.6 °F 68% 29.93 in 10.0 mi Calm Calm - N/A   Overcast
1:37 AM 42.4 °F - 31.1 °F 64% 29.93 in 10.0 mi Calm Calm - N/A   Overcast
1:57 AM 40.5 °F - 32.0 °F 72% 29.93 in 10.0 mi Calm Calm - N/A   Overcast
2:17 AM 40.1 °F - 32.9 °F 75% 29.93 in 10.0 mi Calm Calm - N/A   Overcast
2:37 AM 41.2 °F - 32.9 °F 72% 29.94 in 10.0 mi Calm Calm - N/A   Overcast
2:57 AM 41.2 °F - 32.4 °F 71% 29.93 in 10.0 mi Calm Calm - N/A   Overcast
3:17 AM 40.5 °F - 32.5 °F 73% 29.93 in 10.0 mi Calm Calm - N/A   Overcast
3:37 AM 41.2 °F 39.2 °F 32.5 °F 71% 29.94 in 10.0 mi WNW 3.5 mph - N/A   Overcast
3:57 AM 41.4 °F 39.4 °F 32.9 °F 72% 29.93 in 10.0 mi North 3.5 mph - N/A   Overcast
4:18 AM 41.0 °F - 32.4 °F 71% 29.95 in 10.0 mi Calm Calm - N/A   Overcast
4:37 AM 43.0 °F 41.3 °F 32.2 °F 66% 29.96 in 10.0 mi NW 3.5 mph - N/A   Overcast
4:57 AM 43.3 °F - 32.5 °F 66% 29.97 in 10.0 mi Calm Calm - N/A   Overcast
5:18 AM 43.0 °F - 32.4 °F 66% 29.96 in 10.0 mi Calm Calm - N/A   Overcast
5:37 AM 42.4 °F 39.6 °F 32.9 °F 69% 29.94 in 10.0 mi NNE 4.6 mph - N/A   Overcast
5:57 AM 43.0 °F 40.3 °F 34.7 °F 73% 29.94 in 10.0 mi North 4.6 mph - N/A   Overcast
6:17 AM 43.7 °F - 35.6 °F 73% 29.94 in 10.0 mi Calm Calm - N/A   Overcast
6:37 AM 42.6 °F - 35.1 °F 75% 29.93 in 10.0 mi Calm Calm - N/A   Overcast
6:57 AM 41.4 °F 38.4 °F 35.2 °F 79% 29.93 in 10.0 mi ENE 4.6 mph - N/A   Overcast
7:17 AM 42.1 °F 39.2 °F 35.6 °F 78% 29.95 in 10.0 mi North 4.6 mph - N/A   Overcast
7:37 AM 41.9 °F 40.0 °F 35.8 °F 79% 29.95 in 10.0 mi NNE 3.5 mph - N/A   Mostly Cloudy
7:57 AM 42.6 °F 39.9 °F 36.9 °F 80% 29.95 in 10.0 mi NE 4.6 mph - N/A   Mostly Cloudy
8:17 AM 43.7 °F 41.1 °F 38.5 °F 82% 29.97 in 10.0 mi ENE 4.6 mph - N/A   Scattered Clouds
8:37 AM 44.8 °F 41.6 °F 38.7 °F 79% 29.97 in 10.0 mi NE 5.8 mph - N/A   Clear
8:57 AM 45.9 °F 42.9 °F 39.0 °F 77% 29.97 in 10.0 mi ENE 5.8 mph - N/A   Clear
9:17 AM 46.6 °F - 39.0 °F 75% 29.97 in 10.0 mi ENE 3.5 mph - N/A   Clear
9:37 AM 48.2 °F - 39.0 °F 71% 29.96 in 10.0 mi ESE 3.5 mph - N/A   Clear
9:57 AM 48.6 °F - 39.2 °F 70% 29.95 in 10.0 mi SE 4.6 mph - N/A   Clear
10:17 AM 51.1 °F - 39.0 °F 63% 29.95 in 10.0 mi SE 3.5 mph - N/A   Clear
10:37 AM 51.4 °F - 38.3 °F 61% 29.95 in 10.0 mi Calm Calm - N/A   Clear
10:57 AM 52.7 °F - 37.0 °F 55% 29.95 in 10.0 mi SE 3.5 mph - N/A   Clear
11:17 AM 54.0 °F - 36.9 °F 52% 29.96 in 10.0 mi ESE 3.5 mph - N/A   Clear
11:37 AM 54.7 °F - 36.7 °F 51% 29.97 in 10.0 mi SE 3.5 mph - N/A   Clear
11:57 AM 55.2 °F - 36.7 °F 50% 29.97 in 10.0 mi South 3.5 mph - N/A   Clear
12:17 PM 57.0 °F - 37.2 °F 48% 29.97 in 10.0 mi Calm Calm - N/A   Clear
12:37 PM 57.6 °F - 37.6 °F 47% 29.97 in 10.0 mi WNW 5.8 mph - N/A   Clear
12:57 PM 57.7 °F - 36.9 °F 46% 29.97 in 10.0 mi NW 4.6 mph - N/A   Clear
1:17 PM 58.3 °F - 37.2 °F 45% 29.97 in 10.0 mi NW 3.5 mph - N/A   Clear
1:37 PM 58.1 °F - 36.3 °F 44% 29.97 in 10.0 mi WNW 5.8 mph - N/A   Scattered Clouds
1:57 PM 60.1 °F - 35.4 °F 40% 29.97 in 10.0 mi WNW 9.2 mph - N/A   Scattered Clouds
2:17 PM 59.0 °F - 35.6 °F 42% 29.96 in 10.0 mi West 4.6 mph - N/A   Scattered Clouds
2:37 PM 60.4 °F - 33.6 °F 37% 29.95 in 10.0 mi NW 5.8 mph 9.2 mph N/A   Clear
2:57 PM 62.1 °F - 35.6 °F 37% 29.95 in 10.0 mi NW 9.2 mph - N/A   Clear
3:17 PM 61.2 °F - 34.5 °F 37% 29.94 in 10.0 mi NW 3.5 mph - N/A   Clear
3:37 PM 62.1 °F - 35.1 °F 37% 29.93 in 10.0 mi WNW 8.1 mph - N/A   Clear
3:57 PM 62.6 °F - 33.4 °F 34% 29.93 in 10.0 mi NNW 9.2 mph - N/A   Clear
4:17 PM 62.4 °F - 32.4 °F 32% 29.93 in 10.0 mi WNW 5.8 mph - N/A   Clear
4:37 PM 62.6 °F - 31.3 °F 31% 29.92 in 10.0 mi WNW 10.4 mph - N/A   Clear
4:57 PM 62.4 °F - 29.8 °F 29% 29.92 in 10.0 mi NW 4.6 mph - N/A   Clear
5:17 PM 61.3 °F - 28.6 °F 29% 29.92 in 10.0 mi WNW 9.2 mph 23.0 mph N/A   Clear
5:37 PM 61.7 °F - 30.7 °F 31% 29.92 in 10.0 mi WNW 8.1 mph - N/A   Clear
5:57 PM 60.8 °F - 30.2 °F 31% 29.91 in 10.0 mi WNW 8.1 mph - N/A   Clear
6:18 PM 60.1 °F - 30.2 °F 32% 29.91 in 10.0 mi NW 5.8 mph - N/A   Clear
6:37 PM 59.9 °F - 31.5 °F 34% 29.91 in 10.0 mi Calm Calm - N/A   Clear
6:57 PM 59.4 °F - 31.1 °F 34% 29.91 in 10.0 mi WNW 3.5 mph - N/A   Clear
7:18 PM 58.3 °F - 30.7 °F 35% 29.91 in 10.0 mi Calm Calm - N/A   Clear
7:37 PM 57.6 °F - 33.3 °F 40% 29.91 in 10.0 mi Calm Calm - N/A   Clear
7:57 PM 52.7 °F - 33.1 °F 47% 29.91 in 10.0 mi Calm Calm - N/A   Clear
8:17 PM 51.1 °F - 34.5 °F 53% 29.92 in 10.0 mi Calm Calm - N/A   Clear
8:37 PM 50.4 °F - 34.5 °F 55% 29.93 in 10.0 mi Calm Calm - N/A   Clear
8:57 PM 49.5 °F - 35.2 °F 58% 29.93 in 10.0 mi Calm Calm - N/A   Clear
9:17 PM 48.0 °F - 35.2 °F 61% 29.93 in 10.0 mi Calm Calm - N/A   Clear
9:37 PM 49.6 °F - 32.0 °F 51% 29.93 in 10.0 mi Calm Calm - N/A   Scattered Clouds
9:57 PM 47.1 °F - 35.2 °F 63% 29.93 in 10.0 mi Calm Calm - N/A   Scattered Clouds
10:17 PM 47.5 °F - 34.9 °F 62% 29.92 in 10.0 mi Calm Calm - N/A   Mostly Cloudy
10:37 PM 48.4 °F - 34.2 °F 58% 29.92 in 10.0 mi Calm Calm - N/A   Overcast
10:57 PM 46.6 °F - 37.4 °F 70% 29.91 in 10.0 mi Calm Calm - N/A   Mostly Cloudy
11:17 PM 46.6 °F - 34.9 °F 64% 29.91 in 10.0 mi Calm Calm - N/A   Scattered Clouds
11:37 PM 44.6 °F - 34.7 °F 68% 29.90 in 10.0 mi Calm Calm - N/A   Scattered Clouds
11:58 PM 46.9 °F - 35.8 °F 65% 29.88 in 10.0 mi ENE 6.9 mph - N/A   Mostly Cloudy